Regional Weather Roundup
Issued by NWS Little Rock, AR

Home | Current Version | Previous Version | Graphics & Text | Print | Product List | Glossary On
Versions: 1 2 3 4 5 6 7 8 9 10 11 12 13 14 15 16 17 18 19 20 21 22 23 24 25 26 27 28 29 30 31 32 33 34 35 36 37 38 39 40 41 42 43 44 45 46 47 48 49 50
850
ASUS44 KLZK 041505
RWRLZK

WEATHER ROUNDUP FOR ARKANSAS
NATIONAL WEATHER SERVICE LITTLE ROCK AR
1000 AM CDT WED MAY 04 2016

NOTE: "FAIR" INDICATES FEW OR NO CLOUDS BELOW 12,000 FEET WITH NO
SIGNIFICANT WEATHER AND/OR OBSTRUCTIONS TO VISIBILITY.

ARZ001-003-010-029-041600-
NORTHWEST ARKANSAS

CITY           SKY/WX    TMP DP  RH WIND       PRES   REMARKS
FAYETTEVILLE   SUNNY     66  51  58 W14       29.95F
FORT SMITH     SUNNY     66  52  60 W13       29.96F
HARRISON       SUNNY     66  46  48 W15G24    29.89F
BENTONVILLE    SUNNY     64  46  52 NW15      29.95F
ROGERS         SUNNY     65  48  54 W15       29.94F
SILOAM SPGS    SUNNY     66  48  52 NW10G16   29.97S
HIGHFILL       SUNNY     67  49  52 W15G21    29.94F
SPRINGDALE     SUNNY     63  48  59 W12G23    29.96F
$$

ARZ004-005-016-041600-
NORTH CENTRAL ARKANSAS

CITY           SKY/WX    TMP DP  RH WIND       PRES   REMARKS
BATESVILLE     SUNNY     70  48  46 W12G20    29.85F
FLIPPIN        SUNNY    N/A N/A N/A W14G28    29.83S
MTN HOME       MOSUNNY   67  48  50 W8        29.85F
$$

ARZ040-041-041600-
WEST CENTRAL ARKANSAS

CITY           SKY/WX    TMP DP  RH WIND       PRES   REMARKS
MENA           SUNNY     66  52  59 W10       30.00S
$$

ARZ009-017-025-026-028-041600-
NORTHEAST ARKANSAS

CITY           SKY/WX    TMP DP  RH WIND       PRES   REMARKS
CORNING          N/A     64  52  63 W16       29.80F
JONESBORO      SUNNY     67  48  50 W17       29.82F
NEWPORT        SUNNY     70  50  49 W16G22    29.85F
WALNUT RIDGE   SUNNY     66  48  52 W14       29.81F
BLYTHEVILLE    SUNNY     67  50  54 W12G23    29.82F
$$

ARZ022-023-033-042-044-041600-
CENTRAL ARKANSAS

CITY           SKY/WX    TMP DP  RH WIND       PRES   REMARKS
LITTLE ROCK    SUNNY     70  49  47 W13       29.92F
N LITTLE ROCK    N/A     68  51  55 W7        29.91F
JACKSONVILLE   SUNNY     67  51  54 W15G21    29.90F
SEARCY           N/A     66  51  58 MISG        N/A
HOT SPRINGS    SUNNY     67  51  56 W5        29.96F
RUSSELLVILLE   SUNNY     65  51  60 W8        29.92F
$$

ARZ036-041600-
EAST ARKANSAS

CITY           SKY/WX    TMP DP  RH WIND       PRES   REMARKS
WEST MEMPHIS   PTSUNNY   65  50  58 SW8       29.86F
$$

ARZ050-053-066-070-073-041600-
SOUTHWEST ARKANSAS

CITY           SKY/WX    TMP DP  RH WIND       PRES   REMARKS
ARKADELPHIA    FAIR      69  56  63 W8        29.97F
CAMDEN         SUNNY     68  48  49 W7        29.98F
TEXARKANA      SUNNY     69  49  48 W12       30.01F
EL DORADO      SUNNY     69  51  52 W10       30.00S
DE QUEEN       SUNNY     68  55  63 W10       29.99S
$$

ARZ056-057-069-041600-
SOUTHEAST ARKANSAS

CITY           SKY/WX    TMP DP  RH WIND       PRES   REMARKS
PINE BLUFF     SUNNY     68  49  50 W13G21    29.94F
STUTTGART      SUNNY     66  52  59 W15       29.92F
MONTICELLO     SUNNY     68  51  54 W12       29.96F

$$






USA.gov is the U.S. government's official web portal to all federal, state and local government web resources and services.